Location: T�chigga el Be�da
(16.4766°N, 9.3887°W)
Time: 14:21:59
(UTC+00:00)

Cosmos 1441 Rocket - Pass Details

Date: 27 February 2020
Orbit: 497 x 541 km, 81.1° (Epoch: 29 March)

Event Time Altitude Azimuth Distance (km) Brightness Sun altitude
Rises 19:42:20 0° 169° (S) 2,604 6.7 -14.7°
Reaches altitude 10° 19:44:34 10° 159° (SSE) 1,728 5.7 -15.3°
Maximum altitude 19:48:02 34° 94° (E) 865 3.8 -16.1°
Enters shadow 19:48:29 33° 77° (ENE) 890 3.8 -16.2°
